EHI
0 0 0 0 0 0 0 1 2 2 4 7 9 15 26 28 17 10 15 36 54 50 41 42 42 35 20 8 5 4 2 1 1 1 0 0 0 0 0 1 0 0 0 0 0 0 0 0 0
0 0 0 0 0 0 1 1 3 4 4 6 11 20 29 26 16 14 22 37 46 42 39 43 45 40 28 15 8 7 5 4 3 2 1 1 1 0 1 2 1 0 0 0 0 0 0 0 0
0 0 0 0 0 1 2 3 4 5 3 6 16 30 36 29 20 22 29 35 38 38 43 51 52 46 35 22 13 10 8 6 5 5 3 2 2 2 3 3 2 1 1 0 0 0 0 0 0
0 0 0 0 0 2 2 3 5 4 3 8 22 37 42 35 27 28 30 32 36 42 50 57 58 51 39 28 20 14 11 9 9 8 5 4 4 4 4 4 2 1 0 0 0 0 0 0 0
0 0 0 0 0 1 2 2 3 3 4 12 28 42 43 37 31 28 27 30 38 47 51 55 59 56 45 36 30 25 21 20 19 14 8 7 8 6 4 3 2 1 0 0 0 0 0 0 0
0 0 0 0 0 1 2 2 3 5 6 14 32 46 44 36 31 28 26 31 42 49 48 48 53 53 48 43 41 40 39 38 34 26 17 13 12 8 4 2 1 0 0 0 0 0 0 0 0
0 0 0 0 0 0 1 2 4 8 11 18 33 45 45 40 36 32 29 34 44 47 42 38 39 41 41 42 45 49 50 48 42 32 22 16 10 6 3 2 2 1 0 0 0 0 0 0 0
0 0 0 0 0 1 2 3 5 8 13 21 31 41 48 48 42 36 35 40 46 46 40 34 32 32 31 34 41 46 47 45 40 29 19 12 6 2 2 4 6 4 1 0 0 0 0 0 0
0 0 0 0 1 2 3 5 5 6 12 23 36 49 56 52 41 37 42 49 52 51 42 33 30 27 24 27 35 38 37 38 34 25 16 10 5 2 4 11 16 10 3 1 1 0 0 0 1
0 0 0 0 0 2 3 4 4 5 13 30 51 64 63 51 39 38 46 55 58 53 42 33 28 25 25 29 34 32 32 34 29 22 18 12 7 7 13 25 28 18 7 3 2 1 1 1 2
0 0 0 1 1 2 3 4 6 11 21 40 60 68 61 47 38 37 45 54 55 49 41 35 31 31 34 38 36 31 32 35 31 26 24 17 12 16 24 32 33 21 9 5 4 4 3 2 3
0 0 1 2 2 3 4 6 12 22 33 45 55 58 52 43 38 39 45 51 52 47 43 39 39 43 48 46 39 32 33 37 38 36 32 23 17 20 27 32 31 20 9 7 7 5 4 4 3
0 1 2 3 3 3 3 7 15 27 37 44 49 48 44 43 44 46 49 52 52 49 46 43 44 52 58 55 45 35 34 36 38 38 32 25 21 22 26 29 27 19 11 11 10 6 5 5 5
0 1 2 2 2 1 2 6 13 24 33 38 42 45 46 49 51 53 55 57 56 53 49 46 48 56 62 60 49 38 35 35 33 32 28 24 25 27 29 28 25 19 16 18 15 10 9 8 6
0 0 1 1 1 0 1 4 11 20 27 33 39 45 51 52 53 58 62 62 59 55 50 47 46 50 57 58 49 39 34 34 34 32 30 28 29 32 33 31 26 22 23 26 22 16 13 8 5
0 0 0 0 0 0 1 4 11 19 25 32 40 45 48 48 51 57 61 61 58 54 52 47 42 44 50 53 49 41 35 35 37 35 33 32 32 33 33 32 29 26 26 27 23 17 12 8 7
0 0 0 0 1 1 1 6 13 19 24 33 40 43 43 44 48 51 52 55 55 53 51 47 45 46 46 46 45 41 37 35 35 34 31 29 30 32 31 31 30 26 25 23 19 15 13 12 13
0 0 0 0 1 1 1 7 13 17 23 31 38 42 44 45 47 46 47 51 53 52 49 48 48 48 45 43 41 38 35 33 31 30 27 25 27 29 28 28 28 27 25 21 17 15 16 18 19
0 0 0 0 1 1 1 6 10 14 19 28 37 45 49 51 49 48 50 51 51 51 50 47 46 44 43 41 38 33 32 30 27 27 25 23 24 24 24 25 26 27 25 21 18 16 16 18 20
0 0 0 0 1 1 1 4 8 12 17 25 36 46 53 55 53 53 53 51 49 51 50 45 43 41 39 37 33 28 27 25 24 25 24 22 21 20 21 23 24 24 22 19 17 15 13 14 15
0 0 0 0 1 1 1 3 8 11 15 21 31 41 50 54 56 56 54 49 47 48 48 44 42 41 37 33 30 27 26 23 22 22 22 21 18 17 17 19 20 21 18 15 14 12 11 10 10
0 0 0 1 1 0 0 2 8 11 14 20 29 38 45 52 56 55 51 46 44 44 44 43 42 41 38 34 33 30 26 23 21 20 19 18 17 15 15 15 16 17 15 12 11 10 9 8 7
0 0 0 0 0 0 0 2 6 10 13 18 27 36 44 51 54 51 46 41 39 40 41 40 39 38 35 33 32 30 27 24 21 17 15 14 15 14 12 13 14 14 13 11 10 9 9 8 7
0 0 0 0 0 0 0 1 4 7 9 13 23 34 45 51 50 46 42 38 36 36 34 33 33 32 30 27 25 25 24 23 19 14 10 9 10 11 10 11 12 12 11 10 8 7 7 8 7
0 0 0 0 0 0 0 1 3 5 8 12 22 36 44 46 46 42 38 36 34 33 29 26 24 25 24 21 19 17 16 16 13 10 7 5 5 7 8 9 9 10 8 5 4 4 4 5 6
0 0 0 0 0 0 0 1 3 8 11 16 26 36 40 39 39 38 36 33 31 29 25 21 17 17 17 15 13 12 9 8 8 8 6 6 6 7 7 6 6 6 5 2 1 1 2 3 4
0 0 0 0 0 0 0 1 5 10 14 19 26 32 34 35 37 37 35 31 26 23 20 16 13 11 10 8 7 7 6 6 6 5 6 7 8 7 6 5 4 4 3 2 1 0 1 1 2
0 0 0 0 0 0 0 1 4 10 15 21 26 30 33 37 37 36 33 27 21 18 14 12 9 8 7 6 4 4 4 4 4 4 5 7 7 7 6 5 3 2 2 2 1 0 0 0 1
0 0 0 0 0 0 0 1 4 11 18 23 26 30 35 37 35 33 29 22 17 14 10 7 6 6 6 5 5 4 3 3 3 3 4 4 5 5 4 3 2 1 1 1 0 0 0 1 2
0 0 0 0 0 0 0 1 6 14 20 23 25 30 36 36 32 30 26 19 14 11 7 5 4 4 4 5 6 5 4 3 3 2 2 2 2 4 3 2 1 0 0 0 0 0 1 2 3
Wind_Speed
10 12 11 8 8 9 14 9 4 8 8 8 9 10 12 12 10 10 9 14 20 19 16 14 13 14 14 14 14 13 13 12 12 11 10 10 10 10 10 10 10 10 10 10 10 9 9 9 9
11 13 10 8 9 11 11 7 5 9 11 9 8 10 13 13 13 13 12 15 20 18 15 14 14 14 14 14 14 14 13 13 12 11 10 10 10 9 9 9 9 9 9 9 9 9 9 8 8
11 15 8 8 12 13 7 5 10 11 8 7 7 8 10 9 11 11 13 16 18 17 16 15 14 14 14 14 14 14 13 13 12 11 10 9 9 8 8 8 9 8 8 8 8 8 8 7 7
8 8 8 10 14 11 1 6 9 9 8 7 8 10 10 7 8 13 15 16 17 18 17 15 14 14 13 13 14 14 13 12 12 11 10 9 8 8 7 8 8 7 7 7 7 7 6 6 5
9 8 11 12 13 5 4 6 3 5 8 8 9 11 10 8 12 14 14 14 16 18 16 15 13 13 13 13 13 13 12 11 11 10 9 8 8 7 7 7 7 6 6 6 6 5 5 4 4
8 8 11 12 11 4 4 5 2 3 6 8 12 12 9 10 12 13 13 13 16 17 17 14 14 13 12 12 12 12 11 11 10 10 9 8 7 7 6 6 6 6 5 5 5 5 4 3 3
10 11 13 14 8 6 5 4 3 4 4 4 7 11 10 11 11 12 12 13 15 17 16 13 12 12 12 11 11 11 11 10 10 9 9 8 8 7 7 6 6 6 5 5 5 4 4 3 3
11 12 16 14 8 6 8 4 4 2 4 5 3 8 11 11 10 11 12 13 14 14 14 12 12 11 10 10 11 10 10 10 9 9 9 9 9 8 8 8 6 6 6 5 5 5 4 4 5
14 12 14 12 5 5 9 7 4 3 5 7 7 11 16 16 13 11 11 12 12 12 11 10 10 10 10 10 10 9 9 8 8 8 9 9 7 8 8 8 9 7 7 6 6 6 6 6 7
11 11 13 6 1 4 7 7 7 5 7 10 15 18 19 16 14 12 12 12 12 11 9 8 8 7 7 8 8 6 6 6 6 6 7 6 5 5 7 10 10 9 8 7 8 8 7 7 6
12 14 10 4 4 2 3 6 6 6 5 9 16 18 15 15 12 11 11 11 11 10 7 7 6 5 5 5 5 3 3 4 5 4 5 4 3 2 4 5 6 6 7 6 6 7 6 6 4
12 10 7 3 1 1 3 3 4 4 7 11 15 15 13 12 12 11 11 11 10 9 8 7 6 5 5 5 4 2 2 2 2 2 2 2 1 1 2 2 4 4 3 3 3 3 5 4 3
11 9 5 3 2 4 4 2 3 6 13 15 14 13 12 11 9 10 11 11 10 9 7 7 5 6 5 4 2 2 1 1 1 1 1 2 1 1 0 0 1 2 2 3 2 3 3 2 2
9 8 7 6 7 6 5 4 4 7 12 15 15 13 12 12 11 11 10 9 10 9 7 7 5 5 5 3 2 1 1 1 1 2 1 1 1 1 1 1 0 0 0 1 1 2 1 1 1
9 8 9 10 10 8 8 8 8 9 11 13 13 12 12 10 10 10 10 9 9 8 8 6 6 5 4 3 2 1 0 1 1 2 2 1 1 1 1 1 0 0 0 1 1 2 1 2 2
10 11 12 13 14 12 12 9 8 10 10 11 11 11 12 10 8 8 9 9 9 8 7 5 5 5 4 2 1 1 1 1 1 1 2 1 0 2 1 1 1 1 1 0 0 1 1 2 2
13 13 14 13 13 10 10 7 7 9 10 10 10 12 13 9 8 6 9 9 8 8 6 5 5 4 3 3 2 1 1 1 1 1 2 1 0 1 1 1 1 1 1 1 2 0 1 2 2
11 12 13 11 12 12 11 8 9 11 10 10 10 12 14 12 10 7 9 9 8 7 6 5 5 4 2 2 1 1 2 2 2 2 2 2 1 1 1 1 1 1 1 1 2 1 1 2 2
13 11 11 9 11 12 11 11 12 12 11 10 10 11 13 13 12 9 8 8 8 7 6 5 4 3 2 1 1 1 1 1 1 2 3 2 1 1 1 1 1 1 1 2 3 2 2 2 2
13 12 10 7 8 8 8 9 11 11 12 10 10 12 14 13 12 10 9 9 8 7 6 5 4 3 2 2 1 0 0 0 1 2 2 2 1 1 1 1 1 1 1 2 2 2 2 2 2
12 10 9 6 6 8 8 9 10 12 11 11 11 13 15 15 14 12 9 8 8 7 6 6 5 4 3 2 1 1 1 0 1 1 1 2 1 1 2 1 1 1 2 2 2 2 3 2 2
10 9 8 8 8 7 10 9 12 13 12 11 10 11 13 14 14 12 11 9 8 7 7 6 5 5 4 3 3 2 1 1 1 1 1 1 1 1 2 1 1 1 2 2 2 1 2 2 3
11 8 8 10 10 10 10 10 7 11 11 9 8 9 12 13 13 12 11 9 9 8 7 6 5 5 5 4 5 4 3 2 2 2 1 1 0 0 2 2 2 2 2 2 2 2 2 2 3
10 10 10 9 9 13 12 11 7 6 8 9 9 10 12 13 12 11 11 10 9 8 7 6 6 5 4 5 5 5 4 3 3 3 2 1 1 0 2 2 2 2 2 2 2 2 3 2 3
10 9 6 6 8 9 10 9 3 5 8 8 9 11 12 12 12 12 11 10 9 8 7 6 6 5 4 4 4 4 3 3 3 3 3 2 2 1 2 2 2 2 2 2 2 2 3 3 3
9 10 7 6 7 8 9 6 3 4 7 9 10 11 12 12 12 12 10 10 9 8 7 5 5 4 3 4 4 3 3 3 3 4 4 3 2 2 2 2 2 3 3 3 2 2 2 2 2
9 9 8 6 9 9 7 1 2 6 8 10 12 12 12 11 12 12 11 9 9 8 6 5 4 3 4 4 3 3 4 4 4 3 3 3 3 3 4 3 3 3 3 2 2 1 2 2 2
9 9 7 6 6 8 6 3 2 5 6 9 12 12 11 12 12 11 10 9 8 7 6 5 4 3 3 3 2 3 3 3 3 3 4 3 3 3 3 3 3 3 3 2 2 1 1 2 2
9 8 7 7 6 7 6 1 1 4 7 8 11 11 12 13 12 11 9 9 8 7 6 5 4 3 3 4 3 3 3 3 2 2 3 3 3 3 3 3 3 2 2 2 2 2 1 1 2
7 8 7 7 7 7 5 0 1 3 6 7 10 11 12 13 12 11 10 8 7 6 5 4 3 3 3 3 3 3 3 3 4 3 3 3 3 4 4 3 3 3 3 2 2 3 3 2 2
Wind_Direction
264 254 247 248 241 237 246 243 148 109 93 83 74 80 76 64 79 99 124 118 113 117 124 124 128 133 137 138 137 136 135 133 131 128 123 117 111 107 105 103 103 103 104 105 105 105 104 103 102
271 258 241 243 244 242 235 210 131 95 93 103 98 99 92 77 83 108 121 118 118 124 131 124 128 132 135 137 138 138 139 138 137 133 129 125 120 115 111 109 107 106 106 107 108 108 108 108 109
264 264 251 239 241 255 261 131 116 103 111 118 106 80 72 83 95 110 122 125 121 124 118 119 126 129 133 137 140 141 142 142 141 139 135 131 126 122 119 117 114 111 111 112 112 112 113 113 112
251 230 239 248 248 242 298 100 111 128 132 125 117 93 82 76 103 119 130 129 125 121 118 121 124 127 132 137 141 143 144 144 145 143 140 136 131 128 125 122 120 119 118 117 117 117 118 119 118
242 250 239 249 251 235 104 72 101 157 148 143 122 103 91 91 108 122 132 126 125 120 119 123 122 126 131 137 140 142 144 145 145 145 143 140 136 134 132 129 128 127 126 125 123 124 128 130 136
235 236 243 245 240 193 123 114 198 204 150 146 127 114 102 115 121 132 131 128 120 118 119 122 123 127 131 136 138 141 143 145 145 146 145 144 142 140 140 139 139 139 138 138 137 140 146 152 166
252 263 263 258 240 164 127 126 187 211 149 128 126 112 120 126 128 132 128 122 117 119 123 132 134 134 133 133 136 139 142 144 146 148 150 152 154 156 157 155 154 156 156 158 158 163 172 184 202
251 275 275 266 247 169 136 153 187 151 96 94 100 116 133 132 136 135 131 122 119 120 126 135 142 142 146 143 141 142 145 148 152 156 162 165 170 176 177 174 171 171 172 175 177 186 197 210 221
247 259 266 261 239 145 137 159 154 120 111 99 93 117 131 140 147 144 134 126 120 119 124 135 139 146 153 148 143 147 151 157 162 170 177 180 188 188 189 187 168 181 186 191 194 200 210 220 226
235 251 258 284 15 127 147 174 163 171 163 122 106 111 130 144 149 149 140 132 125 124 131 135 135 146 152 141 139 159 168 168 190 182 183 201 211 199 185 160 168 183 194 203 209 214 218 227 227
234 251 281 353 34 36 159 174 171 194 179 137 125 125 135 144 149 145 135 129 127 128 125 122 124 130 125 119 143 162 167 164 206 196 189 212 221 194 152 155 166 184 197 208 203 213 227 228 232
242 255 274 280 109 274 253 193 139 135 106 95 114 124 139 149 151 141 130 124 122 123 121 113 116 105 107 118 138 140 142 152 195 165 188 223 244 230 167 171 171 181 197 208 185 217 228 237 242
237 250 254 262 238 218 236 220 151 117 107 107 113 130 146 147 138 126 123 126 129 122 115 109 107 104 97 92 106 118 111 140 165 121 201 251 240 251 143 154 152 189 191 185 195 229 244 251 261
237 238 233 225 228 210 205 207 185 139 126 126 136 151 148 141 129 116 115 121 122 114 111 106 99 97 95 98 93 104 154 175 191 156 172 264 294 318 5 252 173 176 192 159 207 264 264 273 299
251 240 228 217 217 200 198 214 190 153 145 141 146 143 125 113 115 115 117 117 112 113 110 109 113 99 93 94 96 109 83 146 164 143 131 141 322 317 316 303 326 343 259 177 176 288 296 250 254
235 235 231 216 206 200 207 210 179 148 148 147 144 135 116 111 109 111 109 106 109 108 100 97 100 107 106 98 78 74 51 62 73 105 106 108 202 284 298 321 355 319 309 329 229 259 297 295 287
223 226 229 218 193 200 212 209 163 160 161 149 145 139 124 121 113 120 115 107 104 103 105 101 86 88 93 100 100 95 90 76 72 86 91 95 258 265 296 295 337 285 289 294 276 184 253 277 279
228 229 228 218 186 203 204 187 172 179 169 159 157 150 140 138 130 123 115 111 109 108 106 106 103 82 72 90 104 100 92 96 78 75 68 74 51 345 329 262 264 261 263 274 273 253 233 247 256
255 250 242 224 192 198 201 183 181 178 174 175 174 157 142 138 133 127 118 114 114 111 108 102 95 93 86 73 61 83 78 83 87 93 78 53 31 352 287 337 278 258 242 252 257 235 232 234 228
261 256 249 223 202 206 211 197 180 183 186 187 179 158 149 139 133 130 130 127 123 119 116 112 101 94 84 72 59 75 73 98 102 76 88 76 23 313 286 80 298 309 282 257 251 244 246 249 228
259 259 256 239 205 212 226 218 190 190 193 193 187 167 154 146 143 142 142 131 123 119 108 99 87 82 65 56 66 56 89 0 91 85 95 64 21 346 341 345 342 318 285 276 271 251 243 257 264
257 257 259 251 233 226 222 233 204 197 193 197 187 163 153 146 144 145 138 130 119 112 104 94 85 73 55 43 42 35 55 52 42 47 60 59 17 339 335 344 330 309 303 298 286 291 281 260 263
265 261 252 256 252 249 235 245 225 192 196 196 178 166 151 143 142 141 137 131 122 113 104 100 92 78 61 48 46 31 31 26 13 15 32 29 212 347 356 6 354 337 315 311 309 315 295 287 272
267 271 259 257 258 250 248 241 218 193 194 189 181 168 151 143 139 136 131 124 114 107 103 96 87 78 67 58 55 42 26 23 11 357 353 346 338 21 23 5 354 337 336 335 322 316 296 288 289
249 255 252 249 249 258 273 257 206 185 176 173 170 154 146 145 141 137 134 129 119 113 105 97 92 85 76 71 63 46 22 12 10 355 355 350 345 10 25 4 346 334 325 313 318 314 306 302 303
250 247 243 256 262 270 269 260 188 158 134 135 134 137 143 145 141 136 132 129 126 118 108 102 98 88 79 73 61 45 27 20 27 16 353 347 351 5 11 355 341 325 318 320 338 311 307 316 313
250 257 251 252 270 270 255 274 97 112 133 134 133 138 146 142 136 132 132 130 125 120 115 107 97 88 78 73 62 57 42 30 24 8 358 1 1 355 2 351 343 340 337 333 325 322 320 328 319
245 254 270 250 259 272 271 231 189 167 154 145 141 144 144 136 132 131 133 131 126 125 123 118 107 98 85 73 52 58 50 40 28 13 12 5 1 358 347 346 350 348 344 345 335 338 350 339 330
253 243 255 270 261 268 275 245 210 187 160 161 150 144 139 138 137 134 133 130 127 128 128 125 118 104 85 71 58 49 35 30 26 21 16 7 1 356 347 342 355 354 355 356 354 346 345 344 346
273 277 270 269 277 287 297 317 68 139 145 143 139 138 136 135 134 130 128 127 125 120 113 109 106 91 83 80 74 62 38 25 23 26 25 13 6 360 353 353 356 353 0 356 1 357 5 7 2